Overview Statistics Trail Chart Weather Telemetry Raw packets
 

This is the latest recevied weather packets stored in our database for station/object KI4MRC-13. If no packets are shown the sender has not sent any weather packets the latest 10 day(s).

<< 1 2 3 4 >>
Time Temp. Humidity Pressure Rain* Wind** Luminosity Snow
1788477668 30.56° C 86% 1013.8 hPa 0 mm - 10 W/m² -
1788477362 30.56° C 85% 1013.7 hPa 0 mm - 13 W/m² -
1788477062 30.56° C 85% 1013.7 hPa 0 mm - 16 W/m² -
1788476759 30.56° C 85% 1013.7 hPa 0 mm - 19 W/m² -
1788476457 31.11° C 84% 1013.7 hPa 0 mm - 21 W/m² -
1788476154 31.11° C 83% 1013.9 hPa 0 mm - 24 W/m² -
1788475851 31.11° C 82% 1014 hPa 0 mm - 26 W/m² -
1788475547 31.11° C 81% 1014 hPa 0 mm - 28 W/m² -
1788475243 31.67° C 81% 1014.1 hPa 0 mm - 33 W/m² -
1788474943 31.67° C 80% 1014 hPa 0 mm - 39 W/m² -
1788474642 31.67° C 80% 1013.8 hPa 0 mm - 47 W/m² -
1788474337 31.67° C 80% 1013.7 hPa 0 mm - 59 W/m² -
1788474035 31.67° C 80% 1013.8 hPa 0 mm - 72 W/m² -
1788473731 31.67° C 78% 1013.6 hPa 0 mm - 71 W/m² -
1788473428 31.67° C 79% 1013.7 hPa 0 mm - 69 W/m² -
1788473127 31.67° C 78% 1013.5 hPa 0 mm - 71 W/m² -
1788472822 31.67° C 79% 1013.6 hPa 0 mm - 72 W/m² -
1788472522 31.67° C 79% 1013.4 hPa 0 mm - 77 W/m² -
1788472222 31.67° C 77% 1013.2 hPa 0 mm - 83 W/m² -
1788471921 31.67° C 78% 1013.4 hPa 0 mm - 96 W/m² -
1788471621 32.22° C 77% 1013.4 hPa 0 mm - 100 W/m² -
1788471317 32.22° C 78% 1013 hPa 0 mm - 119 W/m² -
1788471013 31.67° C 79% 1012.9 hPa 0 mm - 111 W/m² -
1788470709 32.22° C 79% 1012.9 hPa 0 mm - 105 W/m² -
1788470409 32.22° C 79% 1012.9 hPa 0 mm - 94 W/m² -

* Rain latest hour (hover to see other rain measurements)
** Current wind speed in m/s (hover to see current wind gust speed)